GW0776 Weather Reports


time (UTC)temp
F
wind
direction
speed
knots
gust
knots
rain 1hr
in
rain 24hr
in
rain mn
in
humidity
%
barometer
mb
20260505041510 73 98 0.9 7.0 0.00 0.00 0.00 79 1011.5
20260505040510 73 188 2.6 7.8 0.00 0.00 0.00 78 1011.5
20260505035510 74 225 1.7 8.7 0.00 0.00 0.00 78 1011.7
20260505035010 74 183 0.9 6.1 0.00 0.00 0.00 78 1011.6
20260505034510 74 158 1.7 6.1 0.00 0.00 0.00 78 1011.7
20260505034010 74 246 0.9 6.1 0.00 0.00 0.00 78 1011.8
20260505033511 74 219 3.5 5.2 0.00 0.00 0.00 78 1011.9
20260505033011 74 206 0.9 4.3 0.00 0.00 0.00 78 1012.0
20260505032511 74 202 1.7 4.3 0.00 0.00 0.00 78 1011.9
20260505032011 74 152 0.9 3.5 0.00 0.00 0.00 78 1011.9
20260505031511 74 162 3.5 3.5 0.00 0.00 0.00 78 1011.8
20260505030511 74 150 0.9 9.6 0.00 0.00 0.00 77 1011.8
20260505030011 74 189 8.7 7.8 0.00 0.00 0.00 77 1011.7
20260505025511 74 156 1.7 7.8 0.00 0.00 0.00 77 1011.6
20260505024011 74 191 2.6 7.0 0.00 0.00 0.00 77 1011.7
20260505023511 74 204 0.9 4.3 0.00 0.00 0.00 77 1011.8
20260505023011 74 186 0.9 7.0 0.00 0.00 0.00 77 1011.8
20260505022511 74 192 0.0 8.7 0.00 0.00 0.00 76 1011.7
20260505022011 74 219 1.7 8.7 0.00 0.00 0.00 76 1011.7
20260505021011 75 175 2.6 7.8 0.00 0.00 0.00 76 1011.6
20260505020511 75 193 1.7 7.8 0.00 0.00 0.00 75 1011.5
20260505020011 75 129 2.6 8.7 0.00 0.00 0.00 75 1011.4
20260505014011 75 164 0.9 7.0 0.00 0.00 0.00 74 1011.4
20260505013511 75 156 1.7 7.0 0.00 0.00 0.00 74 1011.2
20260505013011 76 190 0.9 6.1 0.00 0.00 0.00 74 1011.2
20260505012511 76 98 0.9 6.1 0.00 0.00 0.00 74 1011.1
20260505011511 76 141 0.0 5.2 0.00 0.00 0.00 74 1011.2
20260505010511 76 188 0.9 2.6 0.00 0.00 0.00 73 1011.2
20260505010010 76 183 0.9 4.3 0.00 0.00 0.00 72 1011.1
20260505005511 76 190 0.9 4.3 0.00 0.00 0.00 72 1011.2
20260505005010 77 212 0.0 6.1 0.00 0.00 0.00 71 1011.1
20260505004511 77 227 1.7 6.1 0.00 0.00 0.00 71 1010.9
20260505004010 77 162 1.7 3.5 0.00 0.00 0.00 70 1010.8
20260505002510 78 196 2.6 5.2 0.00 0.00 0.00 69 1010.7
20260505001510 78 279 0.9 8.7 0.00 0.00 0.00 69 1010.8
20260505001010 78 134 2.6 6.1 0.00 0.00 0.00 68 1010.8
20260505000510 78 265 1.7 5.2 0.00 0.00 0.00 69 1010.9
20260504235510 78 116 5.2 4.3 0.00 0.00 0.00 69 1010.8
20260504235010 79 168 3.5 5.2 0.00 0.00 0.00 69 1010.8
20260504234511 79 163 0.9 5.2 0.00 0.00 0.00 69 1010.8
20260504234011 79 139 0.0 5.2 0.00 0.00 0.00 68 1011.0
20260504233511 79 178 0.9 7.8 0.00 0.00 0.00 67 1011.0
20260504233010 79 158 0.9 7.8 0.00 0.00 0.00 66 1011.1
20260504232510 79 50 1.7 7.0 0.00 0.00 0.00 66 1011.0
20260504232010 79 217 1.7 4.3 0.00 0.00 0.00 66 1011.1
20260504231510 80 127 1.7 7.8 0.00 0.00 0.00 66 1011.3
20260504231010 80 168 1.7 9.6 0.00 0.00 0.00 66 1011.2
20260504230510 80 146 3.5 10.4 0.00 0.00 0.00 65 1011.4
20260504230010 80 135 1.7 10.4 0.00 0.00 0.00 65 1011.4
20260504225511 80 221 0.9 8.7 0.00 0.00 0.00 64 1011.3
20260504225010 80 185 1.7 8.7 0.00 0.00 0.00 64 1011.2
20260504224510 80 172 1.7 7.0 0.00 0.00 0.00 63 1011.3
20260504224010 81 183 0.9 8.7 0.00 0.00 0.00 63 1011.4
20260504223511 81 122 2.6 8.7 0.00 0.00 0.00 62 1011.4
20260504223010 81 175 4.3 8.7 0.00 0.00 0.00 62 1011.5
20260504222510 81 133 2.6 7.0 0.00 0.00 0.00 61 1011.6
20260504222010 81 206 1.7 7.0 0.00 0.00 0.00 61 1011.6
20260504221010 82 220 0.0 4.3 0.00 0.00 0.00 61 1011.7
20260504220010 82 141 0.9 10.4 0.00 0.00 0.00 60 1011.7
20260504215511 82 140 0.0 10.4 0.00 0.00 0.00 60 1011.7
20260504215010 83 196 2.6 5.2 0.00 0.00 0.00 59 1011.8
20260504214510 83 121 1.7 4.3 0.00 0.00 0.00 59 1011.8
20260504214011 83 170 0.9 8.7 0.00 0.00 0.00 59 1011.9
20260504213510 84 133 1.7 8.7 0.00 0.00 0.00 57 1011.9
20260504213010 83 196 1.7 6.1 0.00 0.00 0.00 59 1011.9
20260504212510 83 158 0.9 6.1 0.00 0.00 0.00 58 1012.0
20260504210511 84 284 1.7 4.3 0.00 0.00 0.00 57 1012.3
20260504210011 84 194 1.7 7.0 0.00 0.00 0.00 56 1012.4
20260504205511 84 194 1.7 7.0 0.00 0.00 0.00 55 1012.5
20260504205011 84 148 1.7 4.3 0.00 0.00 0.00 58 1012.7
20260504204511 84 298 0.9 4.3 0.00 0.00 0.00 57 1012.8
20260504204011 84 136 1.7 5.2 0.00 0.00 0.00 57 1012.8
20260504203511 84 129 1.7 7.8 0.00 0.00 0.00 56 1012.9
20260504203011 84 183 1.7 7.8 0.00 0.00 0.00 55 1012.9
20260504202511 85 8 0.9 3.5 0.00 0.00 0.00 55 1012.9
20260504202011 85 209 0.9 4.3 0.00 0.00 0.00 56 1013.3
20260504201511 85 3 0.9 4.3 0.00 0.00 0.00 56 1013.3
20260504201011 85 151 1.7 4.3 0.00 0.00 0.00 56 1013.4
20260504200511 84 310 0.9 2.6 0.00 0.00 0.00 58 1013.5
20260504200011 84 156 0.9 4.3 0.00 0.00 0.00 56 1013.5
20260504195511 84 258 0.0 6.1 0.00 0.00 0.00 55 1013.7
20260504195011 84 180 2.6 6.1 0.00 0.00 0.00 55 1013.8
20260504194511 84 185 0.9 3.5 0.00 0.00 0.00 57 1013.9
20260504194011 84 124 1.7 7.8 0.00 0.00 0.00 56 1013.9
20260504193011 83 180 2.6 7.8 0.00 0.00 0.00 57 1014.0
20260504192511 83 123 5.2 8.7 0.00 0.00 0.00 57 1014.2
20260504191511 83 121 1.7 4.3 0.00 0.00 0.00 59 1014.3
20260504191011 83 263 2.6 3.5 0.00 0.00 0.00 57 1014.4
20260504190511 83 66 1.7 10.4 0.00 0.00 0.00 58 1014.5
20260504185511 82 265 0.0 6.1 0.00 0.00 0.00 57 1014.5
20260504185011 82 358 0.0 8.7 0.00 0.00 0.00 59 1014.6
20260504184511 82 163 3.5 10.4 0.00 0.00 0.00 57 1014.7
20260504184011 82 165 8.7 10.4 0.00 0.00 0.00 58 1014.7
20260504183011 82 147 2.6 5.2 0.00 0.00 0.00 57 1014.6
20260504182511 82 196 0.0 7.0 0.00 0.00 0.00 56 1014.7
20260504182011 82 278 3.5 7.0 0.00 0.00 0.00 59 1014.9
20260504181511 81 173 3.5 7.0 0.00 0.00 0.00 57 1015.0
20260504180010 81 43 0.9 8.7 0.00 0.00 0.00 59 1015.1
20260504175011 81 122 3.5 8.7 0.00 0.00 0.00 56 1015.3
20260504174510 81 157 2.6 8.7 0.00 0.00 0.00 58 1015.3
20260504174011 81 142 1.7 5.2 0.00 0.00 0.00 59 1015.3
20260504173011 81 234 2.6 4.3 0.00 0.00 0.00 58 1015.5
20260504172511 81 169 0.9 5.2 0.00 0.00 0.00 58 1015.7
20260504171510 81 250 0.9 7.0 0.00 0.00 0.00 58 1015.9
20260504171010 81 129 7.0 8.7 0.00 0.00 0.00 60 1015.9
20260504170511 80 218 0.9 8.7 0.00 0.00 0.00 58 1016.0
20260504151010 76 218 3.5 6.1 0.00 0.00 0.00 64 1016.8
20260504150510 76 278 0.9 9.6 0.00 0.00 0.00 65 1016.8
20260504141011 72 124 0.9 7.0 0.00 0.00 0.00 68 1016.8
20260504140511 72 167 1.7 7.0 0.00 0.00 0.00 67 1016.6
20260504130511 62 172 0.9 1.7 0.00 0.00 0.00 89 1016.8
20260504110511 58 248 0.0 0.0 0.00 0.00 0.00 87 1016.3
20260504100511 59 248 0.0 0.0 0.00 0.00 0.00 84 1016.3
20260504081510 61 248 0.0 0.0 0.00 0.00 0.00 78 1017.2
20260504081010 61 248 0.0 0.0 0.00 0.00 0.00 78 1017.2
20260504050511 64 248 0.0 0.9 0.00 0.00 0.00 70 1018.9
20260504050012 64 248 0.0 0.9 0.00 0.00 0.00 70 1019.0
20260504045511 64 171 0.0 0.0 0.00 0.00 0.00 69 1019.0
20260504045011 65 171 0.0 0.0 0.00 0.00 0.00 68 1019.1
20260504044511 65 171 0.0 0.0 0.00 0.00 0.00 68 1019.1
20260504044011 65 171 0.0 0.0 0.00 0.00 0.00 67 1019.2
20260504043511 65 171 0.0 0.9 0.00 0.00 0.00 67 1019.1